Location: Gwatt
(46.7204°N, 7.6223°E)
Time: 20:22:49
(UTC+00:00)

N. Korean satellite - Visible Passes

Search period start: 25 November 2020 00:00
Search period end: 05 December 2020 00:00
Orbit: 452 x 504 km, 97.2° (Epoch: 25 November)

Date Brightness Start Highest point End Pass type
(mag) Time Alt. Az. Time Alt. Az. Time Alt. Az.
25 Nov 6.4 05:12:52 10° N 05:16:26 78° WNW 05:20:02 10° SSW visible
26 Nov 7.6 04:46:40 10° NNE 04:50:09 48° E 04:53:40 10° S visible
26 Nov 9.4 16:58:32 10° SW 17:01:07 20° W 17:03:44 10° NW visible
27 Nov 9.0 04:20:49 10° NE 04:23:47 24° E 04:26:45 10° SSE visible
27 Nov 7.6 05:54:04 10° NNW 05:57:04 25° WNW 06:00:06 10° SW visible
27 Nov 8.0 16:31:28 10° S 16:34:42 41° W 16:37:59 10° NNW visible
28 Nov 10.0 03:55:45 10° ENE 03:57:18 12° E 03:58:51 10° ESE visible
28 Nov 6.7 05:27:25 10° N 05:30:55 51° WNW 05:34:26 10° SSW visible
29 Nov 6.7 05:01:04 10° NNE 05:04:40 75° ESE 05:08:18 10° S visible
29 Nov 9.8 17:13:51 10° WSW 17:15:42 14° W 17:17:33 10° WNW visible
30 Nov 8.3 04:34:58 10° NNE 04:38:20 35° E 04:41:42 10° SSE visible
30 Nov 8.0 06:08:53 10° NNW 06:11:26 18° WNW 06:13:59 10° WSW visible
30 Nov 8.8 16:46:14 10° SSW 16:49:12 27° W 16:52:13 10° NW visible
01 Dec 9.5 04:09:19 10° NE 04:11:53 18° E 04:14:26 10° SE visible
01 Dec 7.2 05:42:00 10° N 05:45:19 34° WNW 05:48:38 10° SW visible
01 Dec 7.1 16:19:26 10° S 16:22:48 60° W 16:26:15 10° NNW visible
02 Dec 6.4 05:15:29 10° N 05:19:05 72° WNW 05:22:45 10° SSW visible
03 Dec 7.4 04:49:12 10° NNE 04:52:47 53° E 04:56:22 10° S visible
03 Dec 9.5 17:01:10 10° SW 17:03:40 19° W 17:06:13 10° NW visible
04 Dec 8.8 04:23:15 10° NE 04:26:22 26° E 04:29:30 10° SSE visible
04 Dec 7.7 05:56:38 10° NNW 05:59:37 24° WNW 06:02:36 10° WSW visible
04 Dec 8.1 16:33:58 10° SSW 16:37:12 38° W 16:40:29 10° NNW visible
